Aeroporto :
LOGIN :

Iscrizione | Disclaimer

   EN    FR    IT 

 










Sommario :    VFR   VFR Marginale   IFR   IFR Intensivo   IFR Molto Intensivo
Visibilità : 
Base nubi : 
>= 8 km
>= 3000ft
5 / 8 km
1000 / 3000 ft
1500m / 5 km
500 / 1000 ft
800 / 1500m
200 / 500 ft
< 800m
< 200 ft
Simboli :   Temporali  Nebbia  Neve Forte  Precipitazioni Forti  Vento > 20 kt
SIGMETs :   Varie  Temporali  Ghiacco  Turbolenza  Onda orograficha  Ceneri Vulcaniche






- Altitudine del aeroporto : 80 ft
- Codice IATA : LPL


EGGP - Liverpool John Lennon

ULTIMO METAR :
  • 261820Z 31007KT 280V340 CAVOK 18/08 Q1037

METARs OBSOLETI :
  • 261750Z 31010KT 290V350 CAVOK 17/08 Q1037
  • 261720Z 32010KT CAVOK 18/10 Q1037
  • 261650Z 32010KT 290V350 9999 FEW035 18/09 Q1037
  • 261620Z 32008KT 280V010 9999 FEW028 19/11 Q1037
  • 261550Z 31009KT 270V350 9999 SCT028 19/12 Q1037

TAF TAF EGGP
Valido dal 26 a 18 ore il 27 a 18 ore UTC


261655Z 2618/2718 30008KT 9999 SCT030
PROB30 2700/2706 6000
ATIS : +44 151 907 2000 (option 5 or ext 5150)
Met : +44 871 750 5150



MetMap, La meteo Aeronautica in un colpo d'occhio ! - Copyright ORBIFLY Dicembre 2007 - Disclaimer

ORBIFLY MET'MAP TEAM :

Programmazione e sviluppo : Alexandra Zaïnal
Concezione : Baudouin d'Aumeries
Aiuto per la programmazione : Marc-Olivier Méhu
Supporto tecnico e logistico : Manuel Goepfert
Aiuto per la traduzione : Arnaldo La Scala

Contatto : metmap@orbifly.com




FONTI E CREDITI :

   NOAA